Change the Weather History Date:

Wednesday, January 2, 2013

  Actual Average Record
Temperature  
Mean Temperature 84 °F -  
Max Temperature 92 °F - - ()
Min Temperature 77 °F - - ()
Cooling Degree Days 20    
Growing Degree Days 34 (Base 50)    
Moisture  
Dew Point 76 °F    
Average Humidity 86    
Maximum Humidity 100    
Minimum Humidity 50    
Precipitation  
Precipitation 0.08 in - - ()
Sea Level Pressure  
Sea Level Pressure 29.80 in    
Wind  
Wind Speed 4 mph ()    
Max Wind Speed 12 mph    
Max Gust Speed -    
Visibility 6.2 miles    
Events Rain , Thunderstorm    
T = Trace of Precipitation, MM = Missing Value Source: Averaged Metar Reports

Daily Weather History Graph

Daily Weather History Graph

Search for Another Location

Airport or City:

Trip Planner

Search our weather history database for the weather conditions in past years. The results will help you decide how hot, cold, wet, or windy it might be!

Date:

Astronomy

Jan. 02, 2013 Rise Set
Actual Time 7:18 AM MYT 7:16 PM MYT
Civil Twilight 6:55 AM MYT 7:38 PM MYT
Nautical Twilight 6:29 AM MYT 8:04 PM MYT
Astronomical Twilight 6:03 AM MYT 8:30 PM MYT
Moon 11:07 PM MYT (1/2) 10:45 AM MYT (1/2)
Length of Visible Light 12h 43m
Length of Day
11h 58m
Waning Gibbous, 80% of the Moon is Illuminated
Jan 2
Waning Gibbous
Jan 5
Last Quarter
Jan 12
New
Jan 19
First Quarter
Jan 27
Full

Hourly Weather History & Observations

Time (MYT) Temp. Heat Index Dew Point Humidity Pressure Visibility Wind Dir Wind Speed Gust Speed Precip Events Conditions
12:00 AM 78.8 °F - 75.2 °F 89% 29.83 in 6.2 mi East 2.3 mph - N/A   Mostly Cloudy
12:30 AM 78.8 °F - 75.2 °F 89% 29.83 in 6.2 mi ENE 1.2 mph - N/A   Mostly Cloudy
1:00 AM 78.8 °F - 75.2 °F 89% 29.83 in 6.2 mi East 2.3 mph - N/A   Mostly Cloudy
1:30 AM 78.8 °F - 75.2 °F 89% 29.83 in 6.2 mi East 2.3 mph - N/A   Mostly Cloudy
2:00 AM 79 °F - 77 °F 90% 29.83 in 6 mi Calm Calm - -   Scattered Clouds
2:00 AM 78.8 °F - 77.0 °F 94% 29.83 in 6.2 mi WSW 3.5 mph - N/A   Mostly Cloudy
2:30 AM 78.8 °F - 75.2 °F 89% 29.80 in 6.2 mi WSW 3.5 mph - N/A   Mostly Cloudy
3:00 AM 77.0 °F - 75.2 °F 94% 29.80 in 6.2 mi SSW 4.6 mph - N/A   Mostly Cloudy
3:30 AM 77.0 °F - 75.2 °F 94% 29.80 in 6.2 mi South 3.5 mph - N/A   Mostly Cloudy
4:00 AM 78.8 °F - 77.0 °F 94% 29.80 in 6.2 mi SSW 5.8 mph - N/A   Mostly Cloudy
4:30 AM 77.0 °F - 75.2 °F 94% 29.80 in 6.2 mi SSW 6.9 mph - N/A   Mostly Cloudy
5:00 AM 78 °F - 76 °F 92% 29.79 in 6 mi North 6.9 mph - -   Scattered Clouds
5:00 AM 77.0 °F - 75.2 °F 94% 29.80 in 5.6 mi South 4.6 mph - N/A Rain Light Rain
5:30 AM 77.0 °F - 75.2 °F 94% 29.80 in 6.2 mi SSW 4.6 mph - N/A Rain Light Rain
6:00 AM 75.2 °F - 75.2 °F 100% 29.80 in 6.2 mi South 3.5 mph - N/A   Mostly Cloudy
6:30 AM 77.0 °F - 75.2 °F 94% 29.80 in 6.2 mi NE 1.2 mph - N/A   Mostly Cloudy
7:00 AM 77.0 °F - 75.2 °F 94% 29.80 in 6.2 mi East 4.6 mph - N/A   Mostly Cloudy
7:30 AM 77.0 °F - 75.2 °F 94% 29.80 in 6.2 mi East 6.9 mph - N/A   Mostly Cloudy
8:00 AM 78 °F - 75 °F 89% 29.82 in 8 mi NE 2.3 mph - -   Haze
8:00 AM 77.0 °F - 75.2 °F 94% 29.80 in 6.2 mi ESE 5.8 mph - N/A   Mostly Cloudy
8:30 AM 78.8 °F - 77.0 °F 94% 29.80 in 6.2 mi SE 6.9 mph - N/A   Mostly Cloudy
9:00 AM 80.6 °F 87.1 °F 77.0 °F 89% 29.83 in 6.2 mi SE 8.1 mph - N/A   Mostly Cloudy
9:30 AM 82.4 °F 90.9 °F 77.0 °F 84% 29.80 in 6.2 mi ESE 5.8 mph - N/A   Mostly Cloudy
10:00 AM 84.2 °F 94.1 °F 77.0 °F 79% 29.80 in 6.2 mi East 6.9 mph - N/A   Mostly Cloudy
10:30 AM 86.0 °F 96.9 °F 77.0 °F 74% 29.83 in 6.2 mi ENE 3.5 mph - N/A   Mostly Cloudy
11:00 AM 88 °F - 75 °F 57% 29.83 in 11 mi NNE 4.6 mph - -   Haze
11:00 AM 86.0 °F 96.9 °F 77.0 °F 74% 29.80 in 6.2 mi NE 3.5 mph - N/A   Mostly Cloudy
11:30 AM 87.8 °F 102.5 °F 78.8 °F 75% 29.80 in 6.2 mi SSE 3.5 mph - N/A   Mostly Cloudy
12:00 PM 89.6 °F 104.7 °F 78.8 °F 70% 29.80 in 6.2 mi South 5.8 mph - N/A   Mostly Cloudy
12:30 PM 89.6 °F 104.7 °F 78.8 °F 70% 29.80 in 6.2 mi SSE 6.9 mph - N/A   Mostly Cloudy
1:00 PM 89.6 °F 104.7 °F 78.8 °F 70% 29.80 in 6.2 mi ESE 4.6 mph - N/A   Mostly Cloudy
1:30 PM 89.6 °F 104.7 °F 78.8 °F 70% 29.80 in 6.2 mi South 8.1 mph - N/A   Mostly Cloudy
2:00 PM 91 °F - 75 °F 50% 29.78 in 11 mi North 2.3 mph - -   Haze
2:00 PM 91.4 °F 111.0 °F 80.6 °F 71% 29.77 in 6.2 mi South 8.1 mph - N/A   Mostly Cloudy
2:30 PM 87.8 °F 102.5 °F 78.8 °F 75% 29.77 in 6.2 mi South 9.2 mph - N/A   Mostly Cloudy
3:00 PM 87.8 °F 99.7 °F 77.0 °F 70% 29.74 in 6.2 mi NW 6.9 mph - N/A Thunderstorm Thunderstorm
3:30 PM 86.0 °F 101.9 °F 80.6 °F 84% 29.74 in 1.2 mi ESE 1.2 mph - N/A Rain Rain Showers
4:00 PM 84.2 °F 96.1 °F 78.8 °F 84% 29.74 in 5.6 mi SW 5.8 mph - N/A   Mostly Cloudy
4:30 PM 84.2 °F 96.1 °F 78.8 °F 84% 29.74 in 5.6 mi East 5.8 mph - N/A Thunderstorm Thunderstorm
5:00 PM 78.8 °F - 75.2 °F 89% 29.77 in 4.3 mi ENE 11.5 mph - N/A Rain , Thunderstorm Light Thunderstorms and Rain
5:30 PM 77.0 °F - 75.2 °F 94% 29.77 in 6.2 mi ENE 6.9 mph - N/A Rain , Thunderstorm Light Thunderstorms and Rain
6:00 PM 77.0 °F - 75.2 °F 94% 29.77 in 6.2 mi East 5.8 mph - N/A Rain Light Rain
6:30 PM 77.0 °F - 75.2 °F 94% 29.77 in 6.2 mi East 9.2 mph - N/A Rain Light Rain
7:00 PM 77.0 °F - 75.2 °F 94% 29.77 in 6.2 mi East 5.8 mph - N/A Rain Light Rain
7:30 PM 77.0 °F - 75.2 °F 94% 29.80 in 6.2 mi ENE 5.8 mph - N/A   Mostly Cloudy
8:00 PM 79 °F - 77 °F 91% 29.81 in 6 mi North 2.3 mph - -   Haze
8:00 PM 77.0 °F - 75.2 °F 94% 29.80 in 6.2 mi East 1.2 mph - N/A   Mostly Cloudy
8:30 PM 78.8 °F - 75.2 °F 89% 29.80 in 6.2 mi Calm Calm - N/A   Mostly Cloudy
9:00 PM 78.8 °F - 75.2 °F 89% 29.80 in 6.2 mi SE 2.3 mph - N/A   Mostly Cloudy
9:30 PM 78.8 °F - 75.2 °F 89% 29.83 in 6.2 mi NE 1.2 mph - N/A   Mostly Cloudy
10:00 PM 78.8 °F - 75.2 °F 89% 29.83 in 6.2 mi Calm Calm - N/A   Mostly Cloudy
10:30 PM 78.8 °F - 77.0 °F 94% 29.83 in 6.2 mi West 3.5 mph - N/A   Mostly Cloudy
11:00 PM 79 °F - 77 °F 90% 29.86 in 2 mi North 2.3 mph - -   Haze
11:00 PM 77.0 °F - 75.2 °F 94% 29.86 in 6.2 mi SW 2.3 mph - N/A   Mostly Cloudy
11:30 PM 77.0 °F - 75.2 °F 94% 29.83 in 6.2 mi WSW 4.6 mph - N/A   Mostly Cloudy